| time (UTC) | temp F | wind direction | speed knots | gust knots | rain 1hr in | rain 24hr in | rain mn in | humidity % | barometer mb |
| 20260510032028 | 78 | 117 | 0.0 | 0.0 | 0.00 | 0.00 | 0.04 | 77 | 1009.7 |
| 20260510031531 | 78 | 117 | 0.9 | 0.0 | 0.00 | 0.00 | 0.04 | 76 | 1009.7 |
| 20260510031029 | 78 | 117 | 0.9 | 0.0 | 0.00 | 0.00 | 0.04 | 76 | 1009.7 |
| 20260510030528 | 79 | 117 | 0.9 | 0.0 | 0.00 | 0.00 | 0.04 | 75 | 1009.6 |
| 20260510030027 | 79 | 119 | 0.9 | 0.0 | 0.00 | 0.00 | 0.04 | 75 | 1009.5 |
| 20260510025529 | 79 | 119 | 0.9 | 0.0 | 0.00 | 0.00 | 0.04 | 75 | 1009.4 |
| 20260510025027 | 80 | 119 | 1.7 | 0.0 | 0.00 | 0.00 | 0.04 | 75 | 1009.3 |
| 20260510024527 | 80 | 114 | 1.7 | 0.0 | 0.00 | 0.00 | 0.04 | 74 | 1009.2 |
| 20260510024026 | 80 | 127 | 0.9 | 0.0 | 0.00 | 0.00 | 0.04 | 74 | 1009.1 |
| 20260510023528 | 80 | 137 | 0.9 | 0.0 | 0.00 | 0.00 | 0.04 | 74 | 1009.0 |
| 20260510023027 | 81 | 140 | 1.7 | 0.0 | 0.00 | 0.00 | 0.04 | 74 | 1009.0 |
| 20260510022527 | 81 | 221 | 1.7 | 0.0 | 0.00 | 0.00 | 0.04 | 74 | 1008.9 |
| 20260510022026 | 81 | 83 | 1.7 | 0.0 | 0.00 | 0.00 | 0.04 | 74 | 1008.9 |
| 20260510021603 | 81 | 154 | 1.7 | 0.0 | 0.00 | 0.00 | 0.04 | 73 | 1008.9 |
| 20260510021024 | 82 | 157 | 1.7 | 0.0 | 0.00 | 0.00 | 0.04 | 73 | 1008.8 |
| 20260510020524 | 82 | 165 | 1.7 | 0.0 | 0.00 | 0.00 | 0.04 | 73 | 1008.7 |
| 20260510020024 | 82 | 105 | 1.7 | 0.0 | 0.00 | 0.00 | 0.04 | 72 | 1008.6 |
| 20260510015525 | 82 | 164 | 2.6 | 0.0 | 0.00 | 0.00 | 0.04 | 72 | 1008.6 |
| 20260510015023 | 82 | 107 | 2.6 | 0.0 | 0.00 | 0.00 | 0.04 | 71 | 1008.5 |
| 20260510014533 | 82 | 117 | 0.9 | 0.0 | 0.00 | 0.00 | 0.04 | 70 | 1008.5 |
| 20260510014023 | 83 | 117 | 1.7 | 0.0 | 0.00 | 0.00 | 0.04 | 70 | 1008.5 |
| 20260510013526 | 83 | 109 | 1.7 | 0.0 | 0.00 | 0.00 | 0.04 | 69 | 1008.4 |
| 20260510013023 | 83 | 115 | 1.7 | 0.0 | 0.00 | 0.00 | 0.04 | 68 | 1008.3 |
| 20260510012523 | 83 | 144 | 1.7 | 0.0 | 0.00 | 0.00 | 0.04 | 68 | 1008.3 |
| 20260510012023 | 84 | 99 | 1.7 | 0.0 | 0.00 | 0.00 | 0.04 | 68 | 1008.2 |
| 20260510011524 | 84 | 117 | 1.7 | 0.0 | 0.00 | 0.00 | 0.04 | 67 | 1008.2 |
| 20260510011022 | 84 | 69 | 1.7 | 0.0 | 0.00 | 0.00 | 0.04 | 66 | 1008.2 |
| 20260510010522 | 84 | 83 | 0.9 | 0.0 | 0.00 | 0.00 | 0.04 | 66 | 1008.2 |
| 20260510010034 | 85 | 186 | 0.9 | 0.0 | 0.00 | 0.00 | 0.04 | 65 | 1008.1 |
| 20260510005522 | 85 | 186 | 1.7 | 0.0 | 0.00 | 0.00 | 0.04 | 65 | 1008.1 |
| 20260510005022 | 85 | 57 | 1.7 | 0.0 | 0.00 | 0.00 | 0.04 | 64 | 1008.0 |
| 20260510004522 | 86 | 111 | 1.7 | 0.0 | 0.00 | 0.00 | 0.04 | 63 | 1008.0 |
| 20260510004021 | 86 | 180 | 2.6 | 0.0 | 0.00 | 0.00 | 0.04 | 62 | 1008.0 |
| 20260510003521 | 86 | 103 | 2.6 | 0.0 | 0.00 | 0.00 | 0.04 | 61 | 1008.0 |
| 20260510003024 | 87 | 227 | 1.7 | 0.0 | 0.00 | 0.00 | 0.04 | 61 | 1007.9 |
| 20260510002522 | 87 | 131 | 2.6 | 0.0 | 0.00 | 0.00 | 0.04 | 60 | 1007.9 |
| 20260510002021 | 87 | 157 | 2.6 | 0.0 | 0.00 | 0.00 | 0.04 | 60 | 1007.8 |
| 20260510001521 | 87 | 158 | 1.7 | 0.0 | 0.00 | 0.00 | 0.04 | 59 | 1007.7 |
| 20260510001021 | 87 | 214 | 1.7 | 0.0 | 0.00 | 0.00 | 0.04 | 59 | 1007.7 |
| 20260510000520 | 87 | 207 | 2.6 | 0.0 | 0.00 | 0.00 | 0.04 | 58 | 1007.7 |
| 20260510000021 | 88 | 128 | 2.6 | 0.0 | 0.00 | 0.00 | 0.04 | 58 | 1007.6 |
| 20260509235521 | 88 | 107 | 1.7 | 0.0 | 0.00 | 0.00 | 0.04 | 57 | 1007.5 |
| 20260509235020 | 89 | 105 | 1.7 | 0.0 | 0.00 | 0.00 | 0.04 | 57 | 1007.5 |
| 20260509234522 | 89 | 130 | 1.7 | 0.0 | 0.00 | 0.00 | 0.04 | 56 | 1007.5 |
| 20260509234020 | 89 | 126 | 2.6 | 0.0 | 0.00 | 0.00 | 0.04 | 56 | 1007.6 |
| 20260509233519 | 89 | 73 | 1.7 | 0.0 | 0.00 | 0.00 | 0.04 | 55 | 1007.5 |
| 20260509233018 | 90 | 148 | 2.6 | 0.0 | 0.00 | 0.00 | 0.04 | 54 | 1007.5 |
| 20260509232518 | 90 | 128 | 1.7 | 0.0 | 0.00 | 0.00 | 0.04 | 54 | 1007.6 |
| 20260509232017 | 90 | 140 | 1.7 | 0.0 | 0.00 | 0.00 | 0.04 | 52 | 1007.5 |
| 20260509231516 | 90 | 25 | 1.7 | 0.0 | 0.00 | 0.00 | 0.04 | 53 | 1007.6 |
| 20260509231015 | 90 | 134 | 0.9 | 0.0 | 0.00 | 0.00 | 0.04 | 52 | 1007.6 |
| 20260509230615 | 90 | 78 | 0.9 | 0.0 | 0.00 | 0.00 | 0.04 | 51 | 1007.5 |
| 20260509230023 | 90 | 108 | 1.7 | 0.0 | 0.00 | 0.00 | 0.04 | 52 | 1007.5 |
| 20260509225515 | 91 | 138 | 1.7 | 0.0 | 0.00 | 0.00 | 0.04 | 53 | 1007.5 |
| 20260509225013 | 90 | 31 | 0.9 | 0.0 | 0.00 | 0.00 | 0.04 | 52 | 1007.6 |
| 20260509224517 | 90 | 82 | 1.7 | 0.0 | 0.00 | 0.00 | 0.04 | 54 | 1007.6 |
| 20260509224014 | 90 | 45 | 2.6 | 0.0 | 0.00 | 0.00 | 0.04 | 50 | 1007.5 |
| 20260509223514 | 90 | 136 | 1.7 | 0.0 | 0.00 | 0.00 | 0.04 | 49 | 1007.5 |
| 20260509223014 | 90 | 140 | 1.7 | 0.0 | 0.00 | 0.00 | 0.04 | 50 | 1007.6 |
| 20260509222513 | 90 | 113 | 1.7 | 0.0 | 0.00 | 0.00 | 0.04 | 46 | 1007.6 |
| 20260509222013 | 90 | 94 | 1.7 | 0.0 | 0.00 | 0.00 | 0.04 | 46 | 1007.5 |
| 20260509221513 | 89 | 98 | 1.7 | 0.0 | 0.00 | 0.00 | 0.04 | 49 | 1007.5 |
| 20260509221013 | 89 | 113 | 1.7 | 0.0 | 0.00 | 0.00 | 0.04 | 48 | 1007.5 |
| 20260509220511 | 89 | 71 | 1.7 | 0.0 | 0.00 | 0.00 | 0.04 | 49 | 1007.4 |
| 20260509220011 | 89 | 76 | 1.7 | 0.0 | 0.00 | 0.00 | 0.04 | 48 | 1007.5 |
| 20260509215511 | 89 | 146 | 1.7 | 0.0 | 0.00 | 0.00 | 0.04 | 48 | 1007.6 |
| 20260509215009 | 89 | 154 | 2.6 | 0.0 | 0.00 | 0.00 | 0.04 | 48 | 1007.7 |
| 20260509214509 | 89 | 202 | 2.6 | 0.0 | 0.00 | 0.00 | 0.04 | 49 | 1007.7 |
| 20260509214008 | 88 | 235 | 2.6 | 0.0 | 0.00 | 0.00 | 0.04 | 52 | 1007.8 |
| 20260509213509 | 88 | 84 | 2.6 | 0.0 | 0.00 | 0.00 | 0.04 | 51 | 1007.8 |
| 20260509213010 | 88 | 180 | 2.6 | 0.0 | 0.00 | 0.00 | 0.04 | 51 | 1007.9 |
| 20260509212506 | 87 | 202 | 2.6 | 0.0 | 0.00 | 0.00 | 0.04 | 54 | 1008.0 |
| 20260509212009 | 87 | 67 | 1.7 | 0.0 | 0.00 | 0.00 | 0.04 | 55 | 1008.1 |
| 20260509211506 | 86 | 5 | 1.7 | 0.0 | 0.00 | 0.00 | 0.04 | 57 | 1008.1 |
| 20260509211008 | 86 | 120 | 2.6 | 0.0 | 0.00 | 0.00 | 0.04 | 55 | 1008.2 |
| 20260509210504 | 87 | 115 | 2.6 | 0.0 | 0.00 | 0.00 | 0.04 | 56 | 1008.2 |
| 20260509210006 | 86 | 113 | 2.6 | 0.0 | 0.00 | 0.00 | 0.04 | 57 | 1008.3 |
| 20260509205506 | 86 | 202 | 3.5 | 0.0 | 0.00 | 0.00 | 0.04 | 57 | 1008.5 |
| 20260509205005 | 88 | 101 | 3.5 | 0.0 | 0.00 | 0.00 | 0.04 | 57 | 1008.4 |
| 20260509204504 | 89 | 146 | 2.6 | 0.0 | 0.00 | 0.00 | 0.04 | 57 | 1008.3 |
| 20260509204004 | 88 | 128 | 2.6 | 0.0 | 0.00 | 0.00 | 0.04 | 55 | 1008.3 |
| 20260509203503 | 87 | 164 | 1.7 | 0.0 | 0.00 | 0.00 | 0.04 | 58 | 1008.1 |
| 20260509203003 | 86 | 136 | 1.7 | 0.0 | 0.00 | 0.00 | 0.04 | 56 | 1008.2 |
| 20260509202502 | 85 | 97 | 1.7 | 0.0 | 0.00 | 0.00 | 0.04 | 57 | 1008.3 |
| 20260509202002 | 84 | 11 | 1.7 | 0.0 | 0.00 | 0.00 | 0.04 | 55 | 1008.4 |
| 20260509201503 | 83 | 128 | 2.6 | 0.0 | 0.00 | 0.00 | 0.04 | 63 | 1008.5 |
| 20260509201059 | 81 | 119 | 2.6 | 0.0 | 0.00 | 0.00 | 0.04 | 65 | 1008.8 |
| 20260509200559 | 78 | 51 | 2.6 | 0.0 | 0.00 | 0.00 | 0.04 | 76 | 1009.1 |
| 20260509200104 | 76 | 149 | 3.5 | 0.0 | 0.00 | 0.00 | 0.04 | 75 | 1009.3 |
| 20260509195600 | 76 | 122 | 4.3 | 0.0 | 0.00 | 0.00 | 0.04 | 73 | 1009.4 |
| 20260509195058 | 77 | 76 | 3.5 | 0.0 | 0.00 | 0.00 | 0.04 | 74 | 1009.3 |
| 20260509194602 | 78 | 5 | 5.2 | 0.0 | 0.00 | 0.00 | 0.04 | 73 | 1009.3 |
| 20260509194058 | 79 | 55 | 6.1 | 0.0 | 0.00 | 0.00 | 0.02 | 66 | 1009.2 |
| 20260509193558 | 81 | 5 | 5.2 | 0.0 | 0.00 | 0.00 | 0.00 | 55 | 1009.1 |
| 20260509193058 | 85 | 17 | 3.5 | 0.0 | 0.00 | 0.00 | 0.00 | 62 | 1009.1 |
| 20260509192601 | 88 | 50 | 1.7 | 0.0 | 0.00 | 0.00 | 0.00 | 63 | 1008.9 |
| 20260509192058 | 88 | 178 | 1.7 | 0.0 | 0.00 | 0.00 | 0.00 | 64 | 1008.8 |
| 20260509191607 | 88 | 144 | 1.7 | 0.0 | 0.00 | 0.00 | 0.00 | 63 | 1008.9 |
| 20260509191056 | 89 | 251 | 1.7 | 0.0 | 0.00 | 0.00 | 0.00 | 63 | 1008.9 |
| 20260509190559 | 90 | 202 | 2.6 | 0.0 | 0.00 | 0.00 | 0.00 | 61 | 1008.8 |
| 20260509190056 | 90 | 170 | 1.7 | 0.0 | 0.00 | 0.00 | 0.00 | 60 | 1008.8 |
| 20260509185556 | 91 | 237 | 1.7 | 0.0 | 0.00 | 0.00 | 0.00 | 59 | 1008.9 |
| 20260509185056 | 91 | 115 | 2.6 | 0.0 | 0.00 | 0.00 | 0.00 | 61 | 1009.0 |
| 20260509184604 | 91 | 232 | 2.6 | 0.0 | 0.00 | 0.00 | 0.00 | 62 | 1009.0 |
| 20260509184053 | 89 | 210 | 2.6 | 0.0 | 0.00 | 0.00 | 0.00 | 64 | 1009.1 |
| 20260509183552 | 88 | 153 | 1.7 | 0.0 | 0.00 | 0.00 | 0.00 | 64 | 1009.3 |
| 20260509183058 | 89 | 156 | 1.7 | 0.0 | 0.00 | 0.00 | 0.00 | 65 | 1009.4 |
| 20260509182551 | 90 | 140 | 1.7 | 0.0 | 0.00 | 0.00 | 0.00 | 62 | 1009.6 |
| 20260509182053 | 90 | 192 | 2.6 | 0.0 | 0.00 | 0.00 | 0.00 | 62 | 1009.6 |
| 20260509181553 | 90 | 248 | 2.6 | 0.0 | 0.00 | 0.00 | 0.00 | 62 | 1009.7 |
| 20260509181049 | 89 | 123 | 2.6 | 0.0 | 0.00 | 0.00 | 0.00 | 62 | 1009.7 |
| 20260509180547 | 89 | 160 | 2.6 | 0.0 | 0.00 | 0.00 | 0.00 | 64 | 1009.8 |
| 20260509180056 | 89 | 239 | 2.6 | 0.0 | 0.00 | 0.00 | 0.00 | 63 | 1009.8 |
| 20260509175549 | 88 | 271 | 2.6 | 0.0 | 0.00 | 0.00 | 0.00 | 65 | 1009.8 |
| 20260509175046 | 89 | 193 | 1.7 | 0.0 | 0.00 | 0.00 | 0.00 | 63 | 1009.9 |
| 20260509174547 | 88 | 224 | 1.7 | 0.0 | 0.00 | 0.00 | 0.00 | 68 | 1010.0 |
| 20260509174045 | 88 | 72 | 1.7 | 0.0 | 0.00 | 0.00 | 0.00 | 65 | 1010.2 |
| 20260509173544 | 87 | 142 | 1.7 | 0.0 | 0.00 | 0.00 | 0.00 | 66 | 1010.4 |
| 20260509173056 | 88 | 225 | 2.6 | 0.0 | 0.00 | 0.00 | 0.00 | 68 | 1010.4 |
| 20260509172544 | 88 | 217 | 2.6 | 0.0 | 0.00 | 0.00 | 0.00 | 69 | 1010.5 |
| 20260509172042 | 87 | 146 | 2.6 | 0.0 | 0.00 | 0.00 | 0.00 | 69 | 1010.5 |
| 20260509171543 | 87 | 215 | 2.6 | 0.0 | 0.00 | 0.00 | 0.00 | 69 | 1010.4 |
| 20260509171046 | 87 | 198 | 2.6 | 0.0 | 0.00 | 0.00 | 0.00 | 71 | 1010.3 |
| 20260509170541 | 86 | 153 | 2.6 | 0.0 | 0.00 | 0.00 | 0.00 | 69 | 1010.3 |
| 20260509170041 | 87 | 209 | 3.5 | 0.0 | 0.00 | 0.00 | 0.00 | 71 | 1010.3 |
| 20260509165539 | 86 | 201 | 2.6 | 0.0 | 0.00 | 0.00 | 0.00 | 71 | 1010.3 |
| 20260509165039 | 86 | 254 | 2.6 | 0.0 | 0.00 | 0.00 | 0.00 | 71 | 1010.4 |
| 20260509164539 | 85 | 182 | 3.5 | 0.0 | 0.00 | 0.00 | 0.00 | 71 | 1010.5 |
| 20260509164038 | 85 | 190 | 3.5 | 0.0 | 0.00 | 0.00 | 0.00 | 73 | 1010.5 |
| 20260509163538 | 85 | 155 | 3.5 | 0.0 | 0.00 | 0.00 | 0.00 | 73 | 1010.6 |
| 20260509163038 | 85 | 240 | 3.5 | 0.0 | 0.00 | 0.00 | 0.00 | 72 | 1010.6 |
| 20260509162538 | 86 | 215 | 2.6 | 0.0 | 0.00 | 0.00 | 0.00 | 72 | 1010.6 |
| 20260509162038 | 86 | 194 | 2.6 | 0.0 | 0.00 | 0.00 | 0.00 | 73 | 1010.6 |
| 20260509161549 | 85 | 202 | 1.7 | 0.0 | 0.00 | 0.00 | 0.00 | 73 | 1010.5 |
| 20260509161037 | 85 | 217 | 2.6 | 0.0 | 0.00 | 0.00 | 0.00 | 73 | 1010.6 |
| 20260509160535 | 84 | 182 | 2.6 | 0.0 | 0.00 | 0.00 | 0.00 | 77 | 1010.5 |
| 20260509160037 | 84 | 187 | 2.6 | 0.0 | 0.00 | 0.00 | 0.00 | 75 | 1010.6 |
| 20260509155532 | 83 | 220 | 2.6 | 0.0 | 0.00 | 0.00 | 0.00 | 77 | 1010.6 |
| 20260509155029 | 83 | 211 | 2.6 | 0.0 | 0.00 | 0.00 | 0.00 | 78 | 1010.7 |
| 20260509154528 | 82 | 178 | 2.6 | 0.0 | 0.00 | 0.00 | 0.00 | 80 | 1010.7 |
| 20260509154028 | 82 | 130 | 2.6 | 0.0 | 0.00 | 0.00 | 0.00 | 83 | 1010.7 |
| 20260509153525 | 81 | 234 | 2.6 | 0.0 | 0.00 | 0.00 | 0.00 | 84 | 1010.6 |
| 20260509153045 | 80 | 163 | 3.5 | 0.0 | 0.00 | 0.00 | 0.00 | 85 | 1010.6 |
| 20260509152524 | 80 | 141 | 3.5 | 0.0 | 0.00 | 0.00 | 0.00 | 86 | 1010.6 |
| 20260509152022 | 79 | 173 | 3.5 | 0.0 | 0.00 | 0.00 | 0.00 | 87 | 1010.7 |
| 20260509151521 | 79 | 163 | 2.6 | 0.0 | 0.00 | 0.00 | 0.00 | 89 | 1010.7 |
| 20260509151019 | 78 | 181 | 2.6 | 0.0 | 0.00 | 0.00 | 0.00 | 89 | 1010.7 |
| 20260509150518 | 77 | 192 | 2.6 | 0.0 | 0.00 | 0.00 | 0.00 | 90 | 1010.7 |
| 20260509150020 | 77 | 167 | 1.7 | 0.0 | 0.00 | 0.00 | 0.00 | 90 | 1010.6 |
| 20260509145519 | 76 | 234 | 1.7 | 0.0 | 0.00 | 0.00 | 0.00 | 91 | 1010.5 |
| 20260509145015 | 76 | 204 | 0.9 | 0.0 | 0.00 | 0.00 | 0.00 | 91 | 1010.6 |
| 20260509144515 | 76 | 169 | 1.7 | 0.0 | 0.00 | 0.00 | 0.00 | 91 | 1010.5 |
| 20260509144013 | 75 | 170 | 1.7 | 0.0 | 0.00 | 0.00 | 0.00 | 91 | 1010.5 |
| 20260509143514 | 75 | 176 | 1.7 | 0.0 | 0.00 | 0.00 | 0.00 | 91 | 1010.4 |
| 20260509143013 | 75 | 143 | 1.7 | 0.0 | 0.00 | 0.00 | 0.00 | 91 | 1010.3 |
| 20260509142513 | 75 | 207 | 1.7 | 0.0 | 0.00 | 0.00 | 0.00 | 91 | 1010.2 |
| 20260509142014 | 75 | 156 | 1.7 | 0.0 | 0.00 | 0.00 | 0.00 | 91 | 1010.2 |
| 20260509141513 | 75 | 137 | 1.7 | 0.0 | 0.00 | 0.00 | 0.00 | 91 | 1010.2 |
| 20260509141014 | 75 | 227 | 1.7 | 0.0 | 0.00 | 0.00 | 0.00 | 91 | 1010.0 |
| 20260509140510 | 75 | 136 | 1.7 | 0.0 | 0.00 | 0.00 | 0.00 | 91 | 1009.9 |
| 20260509140010 | 75 | 221 | 1.7 | 0.0 | 0.00 | 0.00 | 0.00 | 92 | 1010.1 |
| 20260509135513 | 75 | 128 | 0.9 | 0.0 | 0.00 | 0.00 | 0.00 | 92 | 1010.2 |
| 20260509135010 | 75 | 183 | 0.9 | 0.0 | 0.00 | 0.00 | 0.00 | 92 | 1010.1 |
| 20260509134509 | 74 | 193 | 0.9 | 0.0 | 0.00 | 0.00 | 0.00 | 92 | 1010.1 |
| 20260509134009 | 74 | 290 | 0.9 | 0.0 | 0.00 | 0.00 | 0.00 | 92 | 1010.3 |
| 20260509133509 | 74 | 290 | 1.7 | 0.0 | 0.00 | 0.00 | 0.00 | 92 | 1010.3 |
| 20260509133009 | 74 | 355 | 1.7 | 0.0 | 0.00 | 0.00 | 0.00 | 92 | 1010.5 |
| 20260509132512 | 74 | 308 | 1.7 | 0.0 | 0.00 | 0.00 | 0.00 | 92 | 1010.5 |
| 20260509132009 | 74 | 292 | 2.6 | 0.0 | 0.00 | 0.00 | 0.00 | 92 | 1010.4 |
| 20260509131508 | 74 | 87 | 2.6 | 0.0 | 0.00 | 0.00 | 0.00 | 92 | 1010.6 |
| 20260509131008 | 74 | 300 | 1.7 | 0.0 | 0.00 | 0.00 | 0.00 | 92 | 1010.7 |
| 20260509130508 | 73 | 329 | 0.9 | 0.0 | 0.00 | 0.00 | 0.00 | 92 | 1010.6 |
| 20260509130008 | 73 | 305 | 0.9 | 0.0 | 0.00 | 0.00 | 0.00 | 92 | 1010.3 |
| 20260509125509 | 73 | 320 | 0.9 | 0.0 | 0.00 | 0.00 | 0.00 | 92 | 1010.3 |
| 20260509125007 | 73 | 320 | 0.9 | 0.0 | 0.00 | 0.00 | 0.00 | 92 | 1010.4 |
| 20260509124509 | 73 | 38 | 0.0 | 0.0 | 0.00 | 0.00 | 0.00 | 92 | 1010.2 |
| 20260509124007 | 73 | 38 | 0.0 | 0.0 | 0.00 | 0.00 | 0.00 | 92 | 1010.1 |
| 20260509123507 | 73 | 38 | 0.0 | 0.0 | 0.00 | 0.00 | 0.00 | 92 | 1010.0 |
| 20260509123007 | 73 | 38 | 0.0 | 0.0 | 0.00 | 0.00 | 0.00 | 92 | 1010.0 |
| 20260509122506 | 73 | 38 | 0.9 | 0.0 | 0.00 | 0.00 | 0.00 | 92 | 1010.2 |
| 20260509122006 | 73 | 38 | 0.9 | 0.0 | 0.00 | 0.00 | 0.00 | 92 | 1010.4 |
| 20260509121506 | 73 | 178 | 0.9 | 0.0 | 0.00 | 0.00 | 0.00 | 92 | 1010.2 |
| 20260509121010 | 73 | 121 | 0.9 | 0.0 | 0.00 | 0.00 | 0.00 | 92 | 1010.0 |
| 20260509120506 | 73 | 57 | 0.9 | 0.0 | 0.00 | 0.00 | 0.00 | 91 | 1010.2 |
| 20260509120006 | 73 | 334 | 0.9 | 0.0 | 0.00 | 0.00 | 0.00 | 91 | 1010.3 |
| 20260509115505 | 73 | 334 | 1.7 | 0.0 | 0.00 | 0.00 | 0.00 | 91 | 1010.4 |
| 20260509115007 | 73 | 335 | 0.9 | 0.0 | 0.00 | 0.00 | 0.00 | 91 | 1010.4 |
| 20260509114504 | 73 | 349 | 0.9 | 0.0 | 0.00 | 0.00 | 0.00 | 91 | 1010.1 |
| 20260509114004 | 73 | 86 | 0.9 | 0.0 | 0.00 | 0.00 | 0.00 | 91 | 1010.5 |
| 20260509113504 | 73 | 338 | 0.9 | 0.0 | 0.00 | 0.00 | 0.00 | 91 | 1010.7 |
| 20260509113004 | 73 | 5 | 0.0 | 0.0 | 0.00 | 0.00 | 0.00 | 91 | 1011.0 |
| 20260509112504 | 73 | 5 | 0.9 | 0.0 | 0.00 | 0.00 | 0.00 | 91 | 1011.1 |
| 20260509112006 | 73 | 5 | 0.9 | 0.0 | 0.00 | 0.00 | 0.00 | 91 | 1011.0 |
| 20260509111504 | 73 | 350 | 0.9 | 0.0 | 0.00 | 0.00 | 0.00 | 91 | 1011.0 |
| 20260509111003 | 73 | 21 | 0.0 | 0.0 | 0.00 | 0.00 | 0.00 | 91 | 1011.1 |
| 20260509110506 | 73 | 21 | 0.0 | 0.0 | 0.00 | 0.00 | 0.00 | 91 | 1011.1 |
| 20260509110004 | 73 | 21 | 0.9 | 0.0 | 0.00 | 0.00 | 0.00 | 91 | 1011.1 |
| 20260509105503 | 73 | 21 | 0.0 | 0.0 | 0.00 | 0.00 | 0.00 | 91 | 1011.1 |
| 20260509105003 | 73 | 68 | 0.0 | 0.0 | 0.00 | 0.00 | 0.00 | 91 | 1011.2 |
| 20260509104503 | 73 | 68 | 0.0 | 0.0 | 0.00 | 0.00 | 0.00 | 91 | 1011.2 |
| 20260509104002 | 73 | 68 | 0.9 | 0.0 | 0.00 | 0.00 | 0.00 | 91 | 1011.2 |
| 20260509103503 | 73 | 5 | 1.7 | 0.0 | 0.00 | 0.00 | 0.00 | 91 | 1011.3 |
| 20260509103002 | 73 | 355 | 1.7 | 0.0 | 0.00 | 0.00 | 0.00 | 91 | 1011.4 |
| 20260509102502 | 73 | 19 | 1.7 | 0.0 | 0.00 | 0.00 | 0.00 | 91 | 1011.4 |
| 20260509102001 | 74 | 344 | 0.9 | 0.0 | 0.00 | 0.00 | 0.00 | 91 | 1011.2 |
| 20260509101628 | 74 | 16 | 0.9 | 0.0 | 0.00 | 0.00 | 0.00 | 91 | 1011.1 |
| 20260509101058 | 73 | 20 | 0.0 | 0.0 | 0.00 | 0.00 | 0.00 | 91 | 1010.9 |
| 20260509100557 | 73 | 46 | 0.0 | 0.0 | 0.00 | 0.00 | 0.00 | 91 | 1010.7 |
| 20260509100059 | 73 | 46 | 0.0 | 0.0 | 0.00 | 0.00 | 0.00 | 91 | 1010.3 |
| 20260509095557 | 73 | 46 | 0.0 | 0.0 | 0.00 | 0.00 | 0.00 | 91 | 1010.0 |
| 20260509095057 | 73 | 46 | 0.0 | 0.0 | 0.00 | 0.00 | 0.00 | 91 | 1009.9 |
| 20260509094602 | 73 | 46 | 0.0 | 0.0 | 0.00 | 0.00 | 0.00 | 91 | 1010.0 |
| 20260509094056 | 73 | 46 | 0.0 | 0.0 | 0.00 | 0.00 | 0.00 | 91 | 1010.1 |
| 20260509093556 | 73 | 46 | 0.9 | 0.0 | 0.00 | 0.00 | 0.00 | 91 | 1010.1 |
| 20260509093059 | 73 | 46 | 0.0 | 0.0 | 0.00 | 0.00 | 0.00 | 91 | 1010.1 |
| 20260509092556 | 73 | 46 | 0.9 | 0.0 | 0.00 | 0.00 | 0.00 | 91 | 1009.9 |
| 20260509092059 | 73 | 46 | 0.9 | 0.0 | 0.00 | 0.00 | 0.00 | 91 | 1009.8 |
| 20260509091557 | 73 | 46 | 0.9 | 0.0 | 0.00 | 0.00 | 0.00 | 91 | 1009.9 |
| 20260509091056 | 73 | 21 | 0.0 | 0.0 | 0.00 | 0.00 | 0.00 | 91 | 1009.9 |
| 20260509090555 | 73 | 53 | 0.0 | 0.0 | 0.00 | 0.00 | 0.00 | 91 | 1010.0 |
| 20260509090101 | 73 | 53 | 0.0 | 0.0 | 0.00 | 0.00 | 0.00 | 91 | 1009.9 |
| 20260509085554 | 73 | 53 | 0.0 | 0.0 | 0.00 | 0.00 | 0.00 | 91 | 1009.9 |
| 20260509085054 | 73 | 53 | 0.0 | 0.0 | 0.00 | 0.00 | 0.00 | 90 | 1009.9 |
| 20260509084601 | 73 | 53 | 0.0 | 0.0 | 0.00 | 0.00 | 0.00 | 90 | 1010.0 |
| 20260509084055 | 73 | 53 | 0.0 | 0.0 | 0.00 | 0.00 | 0.00 | 90 | 1009.9 |
| 20260509083554 | 73 | 53 | 0.0 | 0.0 | 0.00 | 0.00 | 0.00 | 90 | 1010.0 |
| 20260509083107 | 73 | 53 | 0.0 | 0.0 | 0.00 | 0.00 | 0.00 | 90 | 1010.1 |
| 20260509082555 | 73 | 53 | 0.9 | 0.0 | 0.00 | 0.00 | 0.00 | 90 | 1010.2 |
| 20260509082057 | 73 | 53 | 0.9 | 0.0 | 0.00 | 0.00 | 0.00 | 90 | 1010.5 |
| 20260509081554 | 73 | 53 | 0.9 | 0.0 | 0.00 | 0.00 | 0.00 | 90 | 1010.5 |
| 20260509081054 | 73 | 53 | 0.9 | 0.0 | 0.00 | 0.00 | 0.00 | 90 | 1010.4 |
| 20260509080553 | 73 | 30 | 0.9 | 0.0 | 0.00 | 0.00 | 0.00 | 90 | 1010.2 |
| 20260509080053 | 73 | 53 | 0.9 | 0.0 | 0.00 | 0.00 | 0.00 | 90 | 1010.2 |
| 20260509075553 | 73 | 56 | 0.9 | 0.0 | 0.00 | 0.00 | 0.00 | 90 | 1010.4 |
| 20260509075053 | 73 | 22 | 0.9 | 0.0 | 0.00 | 0.00 | 0.00 | 90 | 1010.3 |
| 20260509074610 | 73 | 91 | 1.7 | 0.0 | 0.00 | 0.00 | 0.00 | 90 | 1010.2 |
| 20260509074052 | 73 | 93 | 0.9 | 0.0 | 0.00 | 0.00 | 0.00 | 90 | 1010.3 |
| 20260509073554 | 73 | 244 | 0.9 | 0.0 | 0.00 | 0.00 | 0.00 | 90 | 1010.3 |
| 20260509073105 | 73 | 244 | 0.9 | 0.0 | 0.00 | 0.00 | 0.00 | 90 | 1010.4 |
| 20260509072552 | 73 | 244 | 0.9 | 0.0 | 0.00 | 0.00 | 0.00 | 90 | 1010.4 |
| 20260509072051 | 73 | 244 | 0.0 | 0.0 | 0.00 | 0.00 | 0.00 | 89 | 1010.5 |
| 20260509071557 | 73 | 244 | 0.0 | 0.0 | 0.00 | 0.00 | 0.00 | 89 | 1010.5 |
| 20260509071052 | 73 | 244 | 0.0 | 0.0 | 0.00 | 0.00 | 0.00 | 89 | 1010.5 |
| 20260509070550 | 73 | 244 | 0.0 | 0.0 | 0.00 | 0.00 | 0.00 | 89 | 1010.5 |
| 20260509070055 | 73 | 244 | 0.0 | 0.0 | 0.00 | 0.00 | 0.00 | 89 | 1010.5 |
| 20260509065548 | 73 | 244 | 0.9 | 0.0 | 0.00 | 0.00 | 0.00 | 89 | 1010.6 |
| 20260509065048 | 73 | 244 | 0.9 | 0.0 | 0.00 | 0.00 | 0.00 | 89 | 1010.4 |
| 20260509064548 | 73 | 126 | 0.9 | 0.0 | 0.00 | 0.00 | 0.00 | 89 | 1010.2 |
| 20260509064046 | 73 | 126 | 1.7 | 0.0 | 0.00 | 0.00 | 0.00 | 89 | 1010.1 |
| 20260509063547 | 73 | 86 | 1.7 | 0.0 | 0.00 | 0.00 | 0.00 | 89 | 1010.2 |
| 20260509063057 | 73 | 113 | 0.9 | 0.0 | 0.00 | 0.00 | 0.00 | 89 | 1010.3 |
| 20260509062546 | 74 | 175 | 1.7 | 0.0 | 0.00 | 0.00 | 0.00 | 89 | 1010.4 |
| 20260509062046 | 74 | 196 | 1.7 | 0.0 | 0.00 | 0.00 | 0.00 | 88 | 1010.5 |
| 20260509061545 | 74 | 111 | 1.7 | 0.0 | 0.00 | 0.00 | 0.00 | 88 | 1010.2 |
| 20260509061045 | 74 | 187 | 2.6 | 0.0 | 0.00 | 0.00 | 0.00 | 88 | 1010.1 |
| 20260509060547 | 74 | 192 | 1.7 | 0.0 | 0.00 | 0.00 | 0.00 | 88 | 1010.0 |
| 20260509060101 | 74 | 202 | 2.6 | 0.0 | 0.00 | 0.00 | 0.00 | 88 | 1009.9 |
| 20260509055544 | 74 | 183 | 2.6 | 0.0 | 0.00 | 0.00 | 0.00 | 88 | 1010.0 |
| 20260509055041 | 74 | 107 | 2.6 | 0.0 | 0.00 | 0.00 | 0.00 | 87 | 1010.2 |
| 20260509054541 | 74 | 173 | 2.6 | 0.0 | 0.00 | 0.00 | 0.00 | 87 | 1010.1 |
| 20260509054040 | 74 | 256 | 1.7 | 0.0 | 0.00 | 0.00 | 0.00 | 87 | 1010.1 |
| 20260509053540 | 74 | 200 | 2.6 | 0.0 | 0.00 | 0.00 | 0.00 | 87 | 1010.0 |
| 20260509053052 | 75 | 184 | 2.6 | 0.0 | 0.00 | 0.00 | 0.00 | 87 | 1009.9 |
| 20260509052538 | 75 | 213 | 1.7 | 0.0 | 0.00 | 0.00 | 0.00 | 87 | 1009.7 |
| 20260509052037 | 75 | 99 | 1.7 | 0.0 | 0.00 | 0.00 | 0.00 | 87 | 1009.6 |
| 20260509051537 | 75 | 111 | 1.7 | 0.0 | 0.00 | 0.00 | 0.00 | 87 | 1009.6 |
| 20260509051036 | 75 | 226 | 1.7 | 0.0 | 0.00 | 0.00 | 0.00 | 87 | 1009.6 |
| 20260509050537 | 75 | 120 | 0.9 | 0.0 | 0.00 | 0.00 | 0.00 | 86 | 1009.6 |
| 20260509050034 | 75 | 215 | 1.7 | 0.0 | 0.00 | 0.00 | 0.00 | 86 | 1009.6 |
| 20260509045535 | 75 | 165 | 1.7 | 0.0 | 0.00 | 0.00 | 0.00 | 86 | 1009.6 |
| 20260509045034 | 75 | 149 | 0.9 | 0.0 | 0.00 | 0.00 | 0.00 | 86 | 1009.6 |
| 20260509044534 | 75 | 178 | 0.9 | 0.0 | 0.00 | 0.00 | 0.00 | 86 | 1009.6 |
| 20260509044034 | 75 | 115 | 0.9 | 0.0 | 0.00 | 0.00 | 0.00 | 85 | 1009.6 |
| 20260509043533 | 75 | 188 | 0.9 | 0.0 | 0.00 | 0.00 | 0.00 | 85 | 1009.7 |
| 20260509043041 | 75 | 240 | 1.7 | 0.0 | 0.00 | 0.00 | 0.00 | 85 | 1009.6 |
| 20260509042534 | 75 | 164 | 1.7 | 0.0 | 0.00 | 0.00 | 0.00 | 85 | 1009.7 |
| 20260509042033 | 75 | 178 | 0.9 | 0.0 | 0.00 | 0.00 | 0.00 | 85 | 1009.9 |
| 20260509041534 | 75 | 211 | 1.7 | 0.0 | 0.00 | 0.00 | 0.00 | 85 | 1009.8 |
| 20260509041033 | 76 | 251 | 1.7 | 0.0 | 0.00 | 0.00 | 0.00 | 85 | 1009.9 |
| 20260509040532 | 76 | 215 | 0.9 | 0.0 | 0.00 | 0.00 | 0.00 | 85 | 1009.9 |
| 20260509040039 | 76 | 198 | 1.7 | 0.0 | 0.00 | 0.00 | 0.00 | 85 | 1009.9 |
| 20260509035533 | 76 | 153 | 1.7 | 0.0 | 0.00 | 0.00 | 0.00 | 84 | 1009.9 |
| 20260509035035 | 76 | 181 | 1.7 | 0.0 | 0.00 | 0.00 | 0.00 | 84 | 1009.8 |
| 20260509034532 | 76 | 164 | 0.9 | 0.0 | 0.00 | 0.00 | 0.00 | 84 | 1009.7 |
| 20260509034032 | 76 | 159 | 0.9 | 0.0 | 0.00 | 0.00 | 0.00 | 84 | 1009.7 |
| 20260509033531 | 76 | 215 | 0.9 | 0.0 | 0.00 | 0.00 | 0.00 | 84 | 1009.7 |
| 20260509033033 | 76 | 167 | 0.9 | 0.0 | 0.00 | 0.00 | 0.00 | 84 | 1009.8 |
| 20260509032533 | 76 | 227 | 0.9 | 0.0 | 0.00 | 0.00 | 0.00 | 84 | 1009.8 |